Theta_e
313 312 313 313 313 317 318 320 322 321 322 324 321 319 316 315 315 317 319 318 316 316 316 316 316 316 317 317 317 317 317 318 319 321 321 321 320 319 319 318 319 318 317 321 324 327 328 330 330 329 332 334 336 337 337 335 333 332 331 331 331 331 330 328 327 323 319 317 316 315 315 315 316 316 316 317 318 317 319 325 329 330 331 332 332 333 334 332 329 327 326 326 326 326 326 326 325
313 313 313 313 317 322 320 320 325 328 325 320 318 318 315 314 317 319 321 320 318 316 316 316 316 317 317 318 317 317 318 318 318 319 319 319 320 319 319 319 318 318 318 319 323 325 327 329 329 329 329 330 333 334 335 333 331 330 330 330 330 330 329 329 327 321 318 317 316 316 316 317 318 317 318 318 318 318 318 322 326 329 330 332 333 333 334 333 329 327 327 327 327 327 326 326 326
313 313 315 317 320 321 322 320 323 329 325 318 318 320 316 315 319 320 318 317 316 316 316 317 316 317 317 318 318 318 319 318 319 319 319 319 319 318 318 319 318 319 318 318 322 324 326 328 328 329 328 329 330 331 331 330 329 329 329 329 330 330 329 329 326 320 317 316 316 317 318 319 318 318 318 318 320 319 319 320 325 328 330 333 334 334 334 333 329 328 327 326 325 323 321 321 321
316 315 317 319 320 320 331 331 327 330 323 319 319 321 321 319 320 318 315 315 316 316 317 317 317 318 318 319 318 318 319 319 320 319 319 319 317 317 316 317 318 319 318 318 320 322 325 326 327 328 328 329 328 329 329 329 329 328 328 328 329 328 328 328 325 319 316 316 317 318 319 319 318 318 318 319 322 322 320 321 325 329 331 334 334 334 335 333 330 327 325 323 320 318 318 316 315
319 318 318 319 320 320 330 328 326 328 321 322 319 317 323 322 319 314 314 316 316 317 317 317 318 318 318 318 318 319 319 319 320 319 319 318 317 316 316 316 317 318 319 318 319 321 323 325 327 327 328 328 328 329 328 328 328 328 327 326 327 327 327 328 325 319 316 317 318 319 320 319 319 321 323 323 326 324 322 322 326 330 332 334 334 334 335 335 332 329 326 325 323 321 318 316 314
318 319 319 318 320 316 323 322 321 324 320 323 320 317 320 317 316 312 313 316 316 317 317 317 318 318 317 317 318 318 319 319 319 319 319 318 317 316 316 316 316 318 319 319 318 319 321 324 325 326 327 328 328 328 328 328 327 327 326 326 326 326 326 327 324 318 317 317 319 320 320 320 322 326 326 326 329 327 324 323 326 331 333 334 335 335 334 334 333 332 331 328 325 320 316 314 312
318 319 318 319 319 317 326 328 324 324 318 316 318 320 317 312 311 311 314 316 316 316 317 317 317 318 317 317 317 318 318 318 319 319 319 319 318 315 316 315 316 316 317 319 318 318 320 322 324 325 326 327 327 327 327 326 326 326 326 325 325 325 326 327 323 318 317 318 319 320 320 320 323 327 325 326 331 330 327 326 327 330 332 333 334 334 332 330 328 327 326 322 317 313 311 310 309
319 319 317 323 326 324 331 328 324 323 316 311 313 316 314 312 311 311 315 315 316 316 316 317 316 317 317 316 316 318 318 318 319 319 319 319 318 315 315 315 316 316 316 318 318 319 319 320 323 324 325 327 327 326 325 326 325 325 324 325 325 325 326 327 324 319 317 318 319 319 320 321 323 324 323 326 331 331 330 328 328 330 332 332 332 331 328 323 321 318 316 313 310 308 307 307 307
319 319 316 323 329 328 330 323 320 320 319 317 313 314 313 312 312 312 315 314 315 314 315 316 316 316 316 315 317 317 317 317 317 318 319 319 318 315 315 315 315 316 315 316 318 319 319 319 321 323 324 326 327 326 325 325 325 324 323 324 324 325 325 327 325 320 318 318 319 320 320 322 324 324 323 325 330 332 332 330 328 329 330 330 328 326 323 320 319 317 315 312 307 306 306 306 306
318 319 315 322 329 325 323 321 320 319 320 318 312 314 313 312 312 312 314 314 313 314 315 316 316 316 316 316 317 316 317 317 315 315 317 318 317 315 315 315 315 315 315 315 316 318 319 319 319 321 323 324 326 326 325 325 325 324 323 323 324 325 325 326 326 323 319 318 319 321 321 323 325 326 324 325 329 332 333 332 329 327 327 326 325 323 322 322 322 320 317 311 306 305 305 305 305
318 317 315 323 328 322 321 322 323 324 321 316 312 313 314 314 314 313 314 314 314 314 314 315 316 316 316 316 316 316 316 316 315 315 315 316 316 316 315 315 315 315 316 316 315 316 318 319 319 320 321 323 325 326 326 325 325 324 323 323 323 324 325 325 327 326 322 319 319 320 323 324 326 326 326 326 328 331 333 333 330 328 326 325 325 325 326 326 325 323 318 311 305 304 304 304 304
317 318 326 332 324 319 321 323 325 328 327 320 315 313 313 314 314 314 314 314 314 314 315 315 315 316 316 315 316 316 315 315 315 315 315 315 316 316 316 315 316 316 316 316 316 315 316 317 318 319 320 321 323 325 325 326 325 325 325 323 323 323 324 325 326 326 325 322 319 320 323 325 327 327 326 326 328 331 332 333 332 330 329 328 328 328 328 328 327 323 317 311 305 304 304 304 304
317 318 328 327 317 319 319 318 323 327 326 318 313 313 313 313 314 314 313 314 313 314 316 315 315 316 316 315 315 315 315 315 314 315 315 315 315 315 316 315 315 316 316 316 316 316 315 315 316 318 319 320 322 323 324 326 326 326 326 325 325 324 324 324 324 325 326 324 320 320 323 325 327 326 327 326 328 330 332 333 332 332 332 331 330 329 328 328 326 320 314 310 304 304 304 303 304
317 316 322 321 314 320 319 317 321 322 320 316 313 312 314 313 314 314 313 315 314 314 316 315 316 316 315 315 315 315 315 314 314 314 314 314 314 315 316 316 315 315 316 316 316 316 316 315 315 316 317 319 320 322 323 326 327 326 327 327 326 326 324 325 324 325 326 326 324 322 323 325 326 326 326 326 326 328 331 332 332 333 333 332 331 330 328 327 322 315 312 309 304 303 304 304 304
317 314 321 323 317 320 317 318 322 321 318 315 314 312 314 314 313 314 313 315 315 314 315 315 315 315 315 315 315 314 314 314 314 314 314 314 314 315 316 316 316 315 315 315 316 316 316 315 315 315 316 318 319 321 322 324 327 327 328 328 327 327 326 326 325 325 326 327 327 325 324 326 327 327 326 326 325 326 329 331 332 332 332 332 331 329 328 325 319 312 311 308 304 303 304 304 304
316 313 320 321 316 316 314 317 321 321 318 313 313 313 315 314 314 314 313 314 315 314 315 315 315 315 315 314 314 314 313 314 314 314 314 314 314 314 315 316 316 316 316 315 316 316 316 316 316 315 315 316 317 319 321 322 325 327 328 328 328 328 328 328 327 326 326 327 327 327 326 326 327 327 326 327 326 325 327 329 331 331 331 332 330 328 327 323 315 311 310 307 303 303 303 304 304
313 317 325 320 314 316 315 319 319 319 320 314 312 314 314 315 314 314 314 314 314 314 315 315 314 314 315 314 313 313 313 314 314 314 314 314 314 314 315 315 316 316 316 315 315 316 316 316 316 316 315 315 316 317 319 321 323 325 327 328 328 328 329 330 329 328 327 327 327 327 327 327 327 327 327 327 327 327 326 327 328 328 329 329 328 328 326 319 313 310 309 307 303 303 303 303 304
318 326 324 316 317 317 317 321 317 315 318 314 313 314 314 315 314 314 314 314 314 315 314 314 315 314 314 313 313 313 314 314 314 314 314 315 314 314 315 314 315 315 316 316 316 315 315 316 316 316 316 315 316 316 317 319 321 323 325 326 327 328 329 329 329 329 328 327 327 327 327 327 328 329 327 326 328 329 327 326 326 326 326 327 327 328 325 317 313 310 309 308 304 303 303 303 304
319 324 317 319 325 317 313 316 313 313 315 313 313 314 313 314 313 313 314 314 313 314 315 314 314 314 313 313 314 314 314 314 314 314 314 314 314 314 314 314 314 315 315 316 316 316 316 316 316 316 316 316 316 316 317 317 319 322 324 325 326 327 327 327 328 329 329 328 327 327 327 327 328 329 329 327 327 328 328 327 327 326 326 326 327 327 324 317 313 310 310 310 306 303 302 303 303
315 317 319 327 322 312 311 313 313 314 314 313 314 313 312 313 313 313 313 313 313 313 314 313 313 313 313 313 314 314 314 314 314 314 314 314 314 314 314 314 314 314 315 315 315 315 316 316 316 316 316 317 317 316 317 317 318 320 323 324 325 325 327 328 328 329 331 330 331 329 328 327 328 328 328 327 326 328 328 328 328 327 327 326 327 326 323 318 314 313 313 311 308 304 302 302 303
315 316 324 323 311 312 315 313 314 314 313 314 313 312 312 313 313 313 312 312 313 313 313 312 312 312 312 313 313 314 314 314 315 314 315 315 315 315 315 315 314 315 314 314 315 315 315 315 315 316 316 316 317 317 317 317 318 320 322 324 325 325 326 329 329 329 329 330 332 331 328 327 327 328 327 325 326 328 329 329 328 326 326 327 326 324 322 320 316 316 317 315 312 307 303 302 302
316 316 318 315 310 315 317 314 316 314 313 313 312 313 313 312 312 312 312 313 313 312 312 311 311 311 312 313 313 314 314 315 315 314 315 315 315 315 315 315 315 315 315 315 315 314 314 314 315 315 315 316 316 317 317 318 319 319 321 323 326 326 326 332 336 333 330 329 330 330 328 326 326 328 329 328 325 324 326 326 326 326 325 324 323 321 322 323 321 319 319 319 316 311 307 303 301
317 317 312 313 313 315 316 315 315 313 313 312 312 313 312 311 311 311 311 311 311 310 311 311 311 311 311 312 313 314 314 314 315 315 315 315 315 316 316 315 315 315 315 315 315 315 314 314 314 314 315 315 315 317 317 318 319 319 320 322 325 326 327 332 337 335 332 328 327 327 327 326 326 327 328 328 325 323 324 322 326 330 326 322 322 321 324 327 325 322 320 320 319 316 311 306 302
317 319 313 314 314 314 315 314 313 312 312 312 312 312 311 312 312 311 310 309 309 310 310 310 311 311 311 312 313 313 313 313 314 314 315 315 316 315 315 315 315 315 315 315 315 315 315 314 314 314 314 314 315 316 317 318 319 319 320 321 325 329 331 329 329 330 331 331 330 329 328 327 327 327 328 327 327 328 327 323 324 327 324 324 325 324 326 328 326 324 320 319 320 319 315 310 306
317 319 314 313 313 313 313 312 313 313 312 313 311 310 311 312 311 310 309 308 309 309 310 310 311 311 312 313 313 313 313 313 313 313 314 314 314 314 314 314 314 314 314 314 314 314 315 315 314 314 314 314 316 316 317 318 318 320 321 322 325 330 330 326 326 329 331 333 335 335 332 328 325 325 327 327 327 329 328 325 326 326 325 326 327 327 327 326 325 324 321 319 319 319 317 314 309
314 315 313 312 312 312 313 313 313 313 312 312 311 311 311 310 310 310 308 308 309 309 310 311 311 312 313 313 313 313 313 313 313 313 313 313 313 313 313 313 314 314 314 315 314 315 314 314 314 314 314 314 316 317 317 317 318 320 321 323 324 328 329 324 324 327 327 329 331 333 334 332 328 326 327 326 326 327 327 327 329 329 327 326 326 326 325 323 322 322 321 320 319 319 318 315 312
312 311 311 312 312 311 312 312 312 312 311 311 311 312 310 309 311 311 308 308 309 310 311 311 312 312 312 312 312 312 312 313 313 312 312 312 313 313 313 313 314 314 315 315 315 315 314 315 314 314 314 315 316 317 317 318 320 323 324 326 325 329 332 327 325 324 326 328 327 329 331 330 329 328 327 328 328 328 328 327 327 327 325 324 323 323 322 320 319 319 319 320 319 319 318 316 313
311 311 312 312 310 312 312 311 311 311 312 311 310 310 308 309 311 310 308 309 310 311 312 311 312 312 311 311 312 312 312 312 312 312 312 313 313 313 313 313 313 314 314 315 316 316 316 315 315 315 315 316 317 317 318 320 322 325 326 327 327 329 330 329 330 326 327 329 325 326 329 328 329 329 327 328 329 329 327 327 327 327 325 323 322 321 321 319 319 320 320 320 319 318 318 315 313
311 311 314 315 313 314 312 309 309 310 312 311 309 313 314 311 309 308 307 309 310 311 312 311 310 310 310 310 311 311 311 311 311 312 312 312 313 313 314 314 314 314 314 315 316 316 316 316 316 316 316 317 318 319 322 322 323 327 328 328 329 331 331 329 328 325 324 325 323 326 329 329 331 330 329 328 330 330 328 328 328 327 325 323 322 322 322 321 320 321 320 319 319 318 317 316 314
313 310 312 316 316 319 312 307 309 309 311 310 310 318 321 311 306 307 308 308 310 311 310 309 309 309 309 310 310 310 310 310 311 311 312 312 312 313 314 314 314 314 314 315 316 316 317 317 317 317 316 318 318 320 325 324 324 329 331 329 327 327 327 324 323 322 322 322 323 326 327 328 328 328 328 328 328 329 328 329 328 326 324 323 323 322 322 322 321 321 320 319 318 317 317 316 315
315 310 315 318 316 323 317 307 310 312 311 309 311 319 321 311 306 309 310 309 310 310 308 308 309 309 309 309 309 310 310 310 310 310 311 311 312 312 313 314 314 314 314 314 314 316 317 318 318 318 318 318 319 321 326 327 325 327 328 327 325 324 323 323 324 324 324 324 325 326 326 326 327 327 328 328 328 327 327 327 326 325 323 322 322 321 322 321 320 320 320 319 318 317 317 317 316
320 313 322 322 315 323 321 307 307 312 310 309 311 319 319 311 306 308 309 310 310 309 307 307 307 308 308 308 309 309 309 309 309 310 310 311 311 312 312 313 314 314 315 315 315 316 317 318 319 320 320 320 320 322 324 326 327 327 328 328 328 327 326 325 326 326 326 326 326 326 326 326 328 328 328 328 328 326 326 325 324 323 323 321 321 321 320 319 319 319 319 318 318 317 316 316 316
322 316 322 324 317 319 319 310 307 308 309 309 311 316 318 311 305 307 308 309 310 308 306 306 306 307 307 307 307 307 308 308 309 309 310 310 310 311 311 312 313 314 315 316 316 317 317 318 319 319 321 322 322 323 323 324 325 325 326 327 326 326 326 326 325 325 326 325 325 326 325 325 326 326 326 326 326 324 324 323 321 321 322 322 322 321 319 319 318 318 318 318 317 317 316 315 315
323 315 317 321 317 315 318 317 310 307 310 312 312 314 316 312 305 306 308 308 309 307 305 305 305 306 306 306 307 307 307 308 309 309 309 309 310 310 311 312 313 314 315 316 316 317 317 318 319 319 321 321 322 322 322 322 322 322 323 323 323 323 324 324 323 324 325 323 323 323 323 323 323 324 324 324 324 323 322 322 321 321 321 321 322 322 320 320 319 319 319 318 317 317 316 315 315
326 320 319 320 317 315 316 317 312 310 314 315 315 315 316 313 307 305 306 307 308 305 303 304 304 305 305 305 306 306 307 308 308 308 309 309 309 309 310 311 312 313 314 315 316 316 317 318 319 318 319 320 320 321 322 321 320 321 321 321 321 321 321 321 321 321 322 321 321 321 321 321 321 322 322 322 322 322 322 322 322 321 321 320 320 321 320 320 319 319 319 318 318 317 316 316 315
324 326 325 324 320 316 316 316 312 309 314 316 315 316 316 314 313 306 304 305 305 303 303 303 303 304 304 304 305 306 306 307 307 308 308 308 308 309 309 310 311 312 313 315 315 315 315 316 317 316 317 318 319 319 319 319 319 320 320 320 320 319 319 319 319 319 319 319 319 319 319 319 320 320 320 321 321 321 321 321 320 320 320 320 319 319 319 318 317 317 317 317 317 316 316 315 315
319 321 322 321 319 317 315 316 312 307 312 317 314 316 316 314 314 306 303 304 303 302 303 302 302 303 303 303 304 305 306 306 307 307 308 308 308 308 309 309 310 311 312 313 314 314 315 315 315 316 316 317 318 317 316 316 316 317 317 317 317 317 317 316 317 318 317 317 317 317 317 317 317 317 317 317 317 317 318 318 318 319 319 319 318 318 318 317 317 316 316 316 315 315 314 313 313
316 317 318 317 317 317 313 314 313 308 312 318 314 316 317 316 313 305 302 304 303 301 301 301 301 301 301 302 302 303 304 305 306 306 307 307 308 308 308 308 308 308 309 309 310 311 313 314 314 315 315 315 316 315 314 313 314 313 312 313 314 314 314 314 314 315 314 314 314 314 314 315 314 314 314 313 313 313 313 314 314 315 316 316 316 316 316 315 315 314 314 313 313 312 311 310 310
314 314 314 315 315 316 315 313 313 310 312 318 316 315 317 315 308 303 301 302 301 301 301 300 300 300 300 301 301 302 303 304 305 306 306 307 307 307 307 307 307 307 307 307 307 308 309 310 310 311 311 311 311 311 310 309 310 309 309 310 310 310 310 310 310 310 309 310 310 310 310 310 309 309 309 309 308 308 308 309 309 310 310 311 310 310 310 310 310 310 310 310 310 309 308 308 308
314 314 314 316 315 317 320 316 313 312 311 315 315 313 315 313 306 303 301 300 300 300 301 300 300 300 300 300 301 302 303 304 305 305 306 306 306 306 306 306 306 306 306 306 307 307 307 307 307 307 307 307 307 307 307 307 307 307 308 308 308 307 307 307 306 306 306 306 306 306 306 306 306 306 306 306 306 306 305 305 305 305 305 305 305 305 305 305 306 306 307 307 307 307 307 307 306
316 315 314 316 316 317 320 316 315 315 312 312 313 316 320 316 311 308 302 300 300 299 299 299 299 299 299 300 301 302 303 303 304 305 305 305 305 305 306 306 306 306 306 306 306 306 306 306 306 306 306 307 306 306 307 307 307 307 307 307 306 306 306 305 305 305 305 305 305 305 305 305 305 305 305 305 305 304 304 304 303 303 303 303 303 303 303 303 303 303 304 304 304 304 305 305 305
319 319 315 314 316 318 318 316 316 319 319 313 310 319 329 323 316 311 303 302 301 300 299 299 298 298 299 300 301 301 302 303 304 305 305 305 305 305 305 305 306 306 306 306 306 306 306 306 306 306 306 306 306 306 306 306 306 306 306 306 306 306 306 305 305 305 304 305 304 304 304 304 304 304 304 304 304 304 303 303 303 302 302 302 302 302 301 301 301 301 302 302 302 302 302 302 303
320 320 316 313 314 317 318 317 318 322 321 312 308 317 326 325 321 311 303 305 303 300 300 299 299 299 299 300 301 301 302 303 304 304 304 305 305 305 305 305 305 305 305 305 305 305 305 305 304 304 305 305 305 305 305 305 305 305 305 305 305 305 305 304 304 304 303 304 303 303 303 303 303 303 303 303 303 302 302 302 302 302 302 301 301 301 301 301 301 301 301 301 301 300 301 301 301
323 318 316 316 315 318 319 318 319 320 318 314 314 315 318 323 321 309 303 307 305 302 301 299 299 299 299 300 300 301 302 303 304 304 304 304 304 304 304 304 304 304 305 304 304 304 304 304 304 304 304 304 304 304 304 304 304 304 304 303 303 303 303 303 302 302 302 302 302 301 301 301 301 301 300 300 300 300 300 300 299 299 299 299 299 299 298 298 298 298 298 298 299 299 300 300 300
322 312 313 317 316 318 319 318 319 316 314 319 320 315 316 322 319 308 304 308 308 306 304 301 299 299 299 300 300 301 302 303 303 304 304 304 304 304 304 304 304 304 304 304 303 304 303 303 303 303 303 303 303 303 303 303 302 302 302 302 302 301 302 301 301 301 300 300 300 299 299 298 298 297 297 297 297 296 296 296 296 296 296 295 295 295 294 294 294 294 295 295 295 295 296 296 297
313 307 310 313 312 315 316 317 319 316 316 323 323 316 316 323 322 313 308 312 313 309 305 302 300 299 299 300 301 301 302 302 303 304 304 304 303 303 303 303 303 303 303 303 303 303 302 302 302 302 302 302 302 302 301 301 301 301 301 301 300 300 300 299 299 298 297 297 297 296 296 295 295 294 294 293 294 294 293 293 293 293 293 293 292 292 292 292 292 292 292 292 291 291 292 292 293
306 310 316 315 315 316 316 317 317 317 321 323 318 314 315 319 323 318 312 315 315 310 307 302 299 299 300 300 301 301 302 302 303 303 303 303 303 303 302 302 302 302 302 302 302 302 302 302 301 301 301 301 301 300 300 300 300 300 299 299 299 298 297 297 297 296 295 295 295 294 293 293 293 293 292 292 292 292 292 292 292 292 291 291 291 291 291 291 291 291 290 290 290 290 290 290 290
309 319 321 318 318 317 317 319 317 320 326 320 311 311 313 316 322 319 313 313 310 308 308 304 300 300 300 301 301 301 301 302 303 303 303 303 303 302 302 302 302 302 301 301 301 301 301 301 301 301 300 300 300 299 299 299 298 298 297 297 296 295 295 295 295 294 293 293 293 293 292 292 292 292 292 292 292 292 291 291 291 291 291 291 291 291 290 290 290 290 290 290 290 290 290 290 290
313 321 320 322 324 321 322 322 318 320 322 313 308 311 312 314 319 318 315 313 307 304 304 302 300 300 301 301 301 300 301 302 302 302 302 302 302 302 302 301 301 301 301 301 301 300 300 300 300 300 299 299 298 298 297 297 297 296 295 295 295 294 294 294 294 293 293 292 292 292 292 292 292 292 292 292 292 291 291 291 291 291 290 290 290 290 290 289 289 289 289 289 289 289 289 289 289
314 319 322 325 327 327 328 323 316 316 316 308 306 310 313 314 315 315 313 309 302 299 301 301 301 301 302 301 301 301 300 301 302 302 302 302 302 301 301 301 301 300 300 300 300 300 300 299 299 299 299 297 296 296 296 296 296 295 294 294 294 294 294 294 293 293 293 292 292 292 292 292 292 292 291 291 291 290 290 290 290 290 290 290 290 289 289 289 289 289 289 289 288 288 288 288 288
313 318 319 321 326 327 326 324 321 319 315 310 306 310 318 318 312 307 303 299 297 299 301 301 301 302 302 301 300 300 300 301 301 302 302 302 301 301 300 300 300 300 300 300 299 299 299 298 298 298 297 296 295 295 295 295 294 293 293 293 293 293 293 293 293 292 292 292 292 292 292 291 291 291 290 290 290 290 290 289 289 289 289 289 289 289 289 289 288 288 288 288 288 288 288 287 287
312 312 316 319 322 322 318 315 316 316 316 314 310 312 317 314 307 300 297 297 297 299 300 301 301 301 301 300 299 299 300 300 301 301 301 301 301 300 300 300 299 299 299 299 299 298 298 297 297 296 296 295 294 293 293 293 293 292 292 292 292 292 292 292 292 292 291 291 291 291 291 290 290 290 290 290 290 290 289 289 289 289 289 289 288 288 288 288 288 288 288 287 287 287 287 287 287
313 312 318 317 314 320 320 311 307 309 315 316 313 315 315 311 308 303 300 300 300 298 298 299 300 300 300 299 299 299 300 301 301 301 301 300 300 300 299 299 299 299 299 299 298 297 297 296 296 295 295 294 293 292 292 292 292 292 292 292 292 292 291 291 291 291 291 290 290 290 290 290 290 290 290 289 289 289 289 289 289 289 289 288 288 288 288 288 288 287 287 287 287 287 287 287 287
315 317 318 312 310 317 320 315 313 313 317 318 314 315 315 314 314 308 303 305 304 299 297 297 298 299 299 299 299 300 301 301 301 301 300 300 300 299 299 299 298 298 298 298 297 296 295 294 294 294 294 293 292 292 292 292 291 292 292 291 291 291 291 291 291 290 290 290 290 290 289 289 289 289 289 289 289 289 289 289 289 289 289 289 288 288 288 288 288 288 287 287 287 287 287 287 287
313 315 312 311 316 318 315 316 320 318 318 320 316 312 312 314 315 312 309 311 309 301 297 297 297 297 298 299 300 300 301 301 300 300 299 299 299 299 299 298 298 298 297 297 296 295 294 293 292 292 292 292 292 291 292 291 291 291 291 291 291 291 291 291 291 290 290 290 290 289 289 289 289 289 289 288 288 288 288 288 288 288 288 288 288 288 288 287 287 287 287 287 287 287 287 287 287
309 310 309 312 317 318 315 316 318 318 319 320 317 314 313 314 315 316 315 312 308 303 300 298 297 297 299 300 300 301 301 301 300 300 299 299 299 299 298 298 298 298 297 296 295 294 293 292 291 291 291 291 291 291 291 291 291 291 291 291 291 291 291 291 290 290 290 290 289 289 289 289 289 288 288 288 288 288 288 288 288 288 287 287 287 287 287 287 287 287 287 287 287 287 287 287 287
312 312 313 312 312 313 315 314 313 317 321 321 319 316 316 315 312 314 317 311 305 304 302 299 297 298 299 300 301 301 301 301 300 300 299 299 299 298 298 298 297 296 295 294 293 293 292 291 291 291 291 291 291 291 291 291 291 291 291 291 291 291 291 291 290 290 289 289 289 289 289 288 288 288 288 288 288 288 288 288 288 287 287 287 287 287 287 287 287 287 287 287 287 287 287 286 286
312 314 315 314 313 314 317 315 312 313 316 318 318 316 316 315 309 310 314 308 301 301 301 299 298 299 300 300 301 301 300 300 300 300 300 299 299 299 298 297 296 295 295 294 293 292 291 291 291 291 291 291 291 291 291 291 291 291 291 291 291 291 291 290 290 289 289 289 288 288 288 288 288 288 288 288 288 288 288 288 287 287 287 287 287 287 287 286 286 286 286 286 286 286 286 286 286
Wind_Speed
4 3 2 2 2 1 2 2 1 2 3 2 1 0 1 2 1 2 2 2 1 1 1 2 2 5 2 1 3 4 4 4 2 1 1 3 6 6 6 4 2 2 3 9 12 15 17 17 16 16 16 15 15 14 13 12 12 11 9 7 7 6 6 5 5 4 3 3 3 3 3 4 4 4 4 5 5 5 6 6 6 4 3 1 1 2 2 2 4 4 4 5 5 6 6 6 6
4 2 2 1 2 1 1 2 2 2 4 3 1 2 1 2 1 2 3 2 2 2 2 1 3 5 4 3 3 3 3 3 3 2 2 4 6 5 6 5 2 1 3 8 11 13 16 17 16 16 15 14 14 14 13 12 11 10 8 8 8 7 6 6 5 5 5 4 3 2 2 3 3 3 3 3 3 3 4 5 5 4 3 2 1 0 1 2 2 3 3 4 5 5 6 6 5
4 3 3 1 2 2 2 3 1 1 4 3 1 3 1 1 2 4 5 3 2 4 3 1 2 4 2 2 2 0 1 2 2 3 2 4 5 5 6 4 2 1 2 7 9 11 14 16 17 16 15 14 14 14 13 11 10 9 8 8 8 7 7 6 5 6 6 4 3 2 2 2 3 3 3 2 1 0 2 3 5 4 4 3 3 1 2 3 2 3 3 4 4 5 6 6 6
5 4 4 1 1 3 3 3 1 3 3 2 1 2 2 3 4 5 4 4 5 3 0 2 1 1 0 1 1 1 3 3 2 2 2 4 4 5 5 4 2 1 2 5 8 10 12 14 16 16 15 15 14 13 13 12 11 9 9 8 8 8 7 6 6 8 7 5 4 3 2 2 2 2 2 2 1 1 2 3 5 5 5 4 3 1 2 3 2 2 3 3 4 6 7 8 7
6 5 6 1 2 1 2 3 2 3 3 3 2 2 3 4 4 5 5 6 3 1 1 3 2 0 1 1 1 0 3 4 3 2 2 4 4 4 4 4 2 0 1 4 7 9 10 12 14 15 15 14 14 14 13 12 11 10 10 9 8 8 7 6 6 8 7 6 5 4 3 1 1 2 2 2 0 1 2 3 5 6 6 4 3 1 2 2 1 1 3 5 7 9 11 12 11
7 6 7 4 4 2 2 3 2 2 3 4 3 2 4 4 5 6 7 4 3 2 2 2 2 2 1 1 2 1 4 4 4 3 2 3 3 3 4 5 4 1 1 2 5 7 9 11 13 14 14 14 14 14 13 13 12 11 10 9 9 8 7 6 7 9 8 7 6 5 4 1 1 1 2 2 0 1 2 4 5 6 5 4 2 0 2 2 2 4 6 8 10 12 13 14 14
7 6 5 4 4 3 2 3 3 2 2 3 2 3 4 4 4 5 6 4 4 3 2 2 1 1 1 3 3 3 5 4 5 5 5 4 2 2 3 5 4 3 1 1 3 5 8 10 12 13 14 14 14 13 13 12 11 11 10 10 9 8 7 7 8 9 9 7 7 6 4 2 1 2 2 2 1 1 2 4 5 6 5 4 2 2 4 4 6 7 8 10 11 12 13 13 13
7 6 4 2 3 4 3 2 2 2 0 2 3 4 5 5 4 2 2 2 3 3 3 2 1 2 1 5 4 4 7 6 7 7 6 4 2 1 2 4 4 3 2 1 2 4 6 9 11 13 13 14 14 13 12 11 11 10 10 10 10 9 8 8 8 9 9 8 8 6 5 3 2 3 3 2 3 2 2 4 5 5 5 4 3 4 6 7 9 10 11 12 12 11 10 10 9
7 5 2 2 2 3 2 1 0 2 2 3 4 6 6 5 2 1 2 2 3 4 4 2 1 3 3 6 3 6 7 7 11 10 7 4 2 1 1 3 4 3 2 0 2 4 6 8 10 12 13 14 14 13 12 12 11 11 10 9 9 9 8 8 7 8 9 9 8 7 6 4 3 3 3 3 4 4 4 4 5 5 5 4 4 5 8 9 11 12 14 15 12 10 8 7 6
7 5 2 2 2 2 2 1 0 1 3 4 5 7 5 3 2 1 2 2 4 5 5 3 0 2 4 5 3 7 8 9 13 12 11 7 2 1 1 2 3 3 2 1 1 3 5 7 8 11 12 13 14 14 13 12 12 12 10 10 10 9 9 9 8 8 9 9 9 8 7 5 4 3 2 3 5 5 5 5 5 6 5 4 5 6 8 10 12 13 16 15 12 9 8 6 5
5 5 4 3 3 2 1 3 2 2 4 5 4 4 3 1 2 1 2 3 5 7 5 3 0 2 4 4 3 5 7 9 13 13 13 10 6 3 2 1 2 2 2 2 2 1 4 6 7 9 11 13 14 15 14 13 13 12 12 10 10 10 10 10 9 9 9 9 10 9 7 6 5 4 3 4 6 6 6 6 6 6 5 5 6 7 9 11 12 14 16 15 12 9 7 5 4
2 2 3 3 2 2 2 2 3 4 5 4 1 4 4 2 1 1 3 3 5 7 6 4 2 3 3 2 4 2 4 12 15 13 12 11 9 5 4 3 2 1 1 2 3 3 3 5 6 8 10 12 14 15 15 14 14 13 13 11 10 10 10 10 10 10 9 9 10 9 8 7 6 5 4 5 7 7 7 8 7 7 6 7 8 9 10 12 13 14 15 14 11 9 7 5 5
2 2 4 3 1 2 2 1 3 4 4 1 1 4 6 3 2 2 2 2 4 5 6 6 4 3 1 3 5 2 6 17 17 13 12 10 9 7 5 5 5 4 3 2 2 4 3 3 5 7 8 11 13 14 15 15 15 14 14 12 11 11 10 10 10 10 10 10 10 9 9 8 7 7 6 6 8 8 8 9 9 8 8 9 9 11 12 12 13 14 14 12 10 8 7 5 4
4 3 4 3 1 1 3 0 2 0 1 2 1 5 7 3 3 4 3 3 2 3 6 7 4 3 2 3 5 7 13 17 16 14 11 8 7 6 4 5 6 7 6 4 3 2 3 3 4 6 7 9 12 14 15 15 15 15 14 14 13 12 11 10 10 10 10 10 10 10 10 9 8 8 8 8 9 10 10 10 9 9 9 10 11 13 14 12 13 13 12 11 8 7 5 4 4
5 4 4 3 2 0 2 1 0 3 2 2 1 7 7 4 5 5 3 2 2 4 8 7 4 3 3 4 7 12 16 15 14 12 8 5 4 4 3 4 6 8 8 7 6 4 2 4 5 6 7 8 10 12 14 15 16 16 16 15 14 13 12 11 11 10 11 11 11 11 10 9 9 8 9 9 10 11 11 11 10 10 10 11 12 14 13 12 13 12 11 9 8 6 4 3 4
5 4 4 3 1 0 2 2 1 3 2 3 1 8 6 3 5 4 2 4 5 7 7 6 5 6 7 8 10 14 16 15 13 10 7 3 1 1 2 4 5 6 8 9 8 7 5 5 5 6 7 8 9 10 12 14 15 16 16 16 15 14 13 13 11 11 11 11 12 12 11 10 10 10 9 10 11 12 13 13 12 12 13 13 14 14 12 13 13 11 9 8 7 6 4 3 3
4 3 4 3 1 1 3 4 3 3 3 4 2 8 4 1 3 4 5 7 7 8 7 8 8 8 9 8 11 16 16 14 11 8 7 4 2 2 2 2 3 4 6 8 9 10 8 7 7 8 8 8 9 9 10 13 14 15 16 16 15 14 14 13 12 12 11 12 12 13 12 11 11 11 10 11 12 13 14 13 13 14 14 15 15 14 14 13 12 9 8 7 6 5 3 3 3
2 2 3 1 2 3 4 6 6 3 2 3 4 8 3 2 4 5 6 5 8 11 11 9 6 3 4 8 13 16 13 11 8 7 5 4 3 4 4 5 5 5 6 7 9 10 11 10 9 9 10 10 10 10 9 10 12 14 15 15 15 15 16 14 13 13 12 12 12 13 13 13 13 13 11 12 13 14 14 14 15 14 14 16 14 14 15 14 11 8 7 7 6 6 4 3 3
3 3 2 2 5 4 4 6 6 4 2 5 8 7 3 4 6 6 4 5 9 12 13 10 5 1 4 12 13 11 9 7 6 5 3 2 2 2 3 4 6 6 6 7 8 10 11 11 10 10 10 11 11 11 11 10 10 12 14 15 14 15 15 14 13 13 13 12 12 12 12 13 13 14 14 13 14 15 15 15 14 14 14 15 14 15 17 14 10 7 7 7 7 6 5 4 3
2 3 1 4 5 3 5 5 5 4 6 8 8 6 5 6 5 4 3 6 7 6 9 9 7 9 13 14 9 7 7 6 6 5 5 5 5 5 4 4 4 5 6 7 8 9 10 10 11 11 10 10 11 12 12 11 10 10 12 14 14 15 14 14 13 12 13 14 14 13 13 13 13 14 15 15 15 15 15 15 14 14 15 14 15 17 17 15 10 7 8 8 8 7 6 5 4
2 3 3 4 3 1 4 3 4 4 6 8 8 7 7 6 5 3 2 4 4 3 6 8 10 15 14 9 5 5 5 6 6 6 7 7 6 7 7 8 7 6 6 6 8 9 10 10 11 11 11 10 11 11 12 11 10 9 11 12 13 13 13 14 13 12 14 15 16 15 14 14 14 15 16 17 16 16 16 15 16 17 15 15 17 17 17 16 12 9 10 10 9 8 7 6 6
2 2 3 4 4 1 3 1 3 4 5 7 8 7 7 7 7 4 3 3 4 6 10 11 11 11 7 4 3 4 4 6 7 6 7 7 8 9 9 8 8 8 7 7 8 9 10 10 10 11 12 11 11 11 11 11 10 9 9 9 11 12 12 14 13 14 16 15 15 16 16 15 14 15 17 17 16 16 16 15 18 16 14 16 17 17 17 16 15 12 11 11 11 9 8 8 7
1 2 2 2 4 4 5 4 6 6 7 8 9 9 10 10 8 4 2 3 5 8 11 9 6 3 1 2 1 2 4 5 6 7 9 10 12 12 12 11 10 9 9 9 10 10 11 11 11 11 12 13 12 11 10 10 9 8 8 8 9 10 10 14 15 15 15 14 14 14 15 16 14 15 16 16 17 16 13 14 16 15 15 17 16 17 17 15 16 18 15 12 13 11 9 9 9
2 2 2 2 5 7 7 8 9 11 12 13 12 12 12 9 6 5 5 3 4 5 3 1 1 3 3 2 1 3 5 5 5 6 7 11 13 14 14 13 13 12 11 12 12 12 12 13 12 11 12 13 13 11 9 8 7 7 7 6 6 9 10 12 14 15 15 14 15 15 13 14 15 16 16 15 17 17 11 11 13 14 16 15 14 16 14 13 16 21 21 16 14 13 11 10 10
3 3 2 1 5 7 9 11 14 15 15 15 11 11 13 10 6 4 6 2 0 1 3 3 4 3 2 2 5 7 7 6 6 5 5 8 10 11 12 12 12 11 11 10 10 11 11 11 11 11 11 13 13 11 9 7 6 5 5 4 6 9 10 11 12 14 16 15 16 17 15 13 13 14 14 13 15 16 13 13 15 16 15 13 14 14 13 14 16 20 22 18 16 15 13 11 11
4 3 3 3 7 10 11 13 14 13 13 11 8 9 10 5 1 2 6 3 4 4 5 5 3 1 2 5 6 6 6 6 7 7 7 7 7 8 9 9 10 9 9 8 7 7 7 7 7 8 10 13 13 11 9 7 5 4 4 4 4 6 6 6 9 12 14 14 13 14 15 16 12 10 13 12 12 12 14 14 13 14 15 16 17 17 18 18 18 19 19 17 16 15 14 12 11
2 1 4 7 10 12 12 13 14 12 13 12 8 7 5 1 2 2 3 3 5 4 4 4 2 1 3 4 4 5 6 7 8 8 7 6 6 6 7 7 9 9 10 9 7 7 5 4 3 6 9 13 14 13 11 8 6 5 3 2 3 5 7 5 5 9 10 13 16 14 11 12 11 10 12 12 13 11 10 10 10 13 15 17 17 20 23 21 17 16 15 15 15 14 13 13 11
1 3 5 8 10 12 11 12 11 7 7 8 6 5 2 2 2 3 3 4 5 3 2 2 1 3 4 3 4 4 6 7 8 8 8 8 8 8 9 9 10 11 11 11 10 10 8 4 1 5 10 14 15 13 11 10 7 5 4 4 3 4 6 6 7 9 10 13 18 16 11 10 10 10 10 11 14 13 8 9 12 14 13 12 12 14 17 16 13 10 11 14 14 13 12 12 12
2 4 4 7 9 9 7 5 4 1 2 3 1 2 4 3 3 4 3 2 3 2 2 3 4 5 5 5 4 5 6 7 6 7 8 9 9 9 10 11 12 12 12 12 11 10 9 6 2 4 10 14 15 13 10 9 10 7 6 8 7 7 8 9 8 8 9 12 14 15 13 12 11 12 11 10 13 14 10 10 12 12 9 7 8 9 10 11 10 9 11 14 14 13 11 11 12
2 3 2 5 7 6 3 3 3 1 2 1 2 2 4 2 3 4 2 3 5 1 5 5 6 6 5 5 5 5 5 5 6 7 8 8 9 9 10 11 11 11 11 11 10 10 10 8 5 3 7 10 12 13 11 9 11 11 10 10 9 8 8 7 6 5 6 9 11 12 10 8 9 10 10 9 10 12 12 10 8 7 6 5 5 6 6 6 7 8 10 13 14 14 12 11 12
2 1 2 3 2 5 5 3 3 1 1 1 4 1 4 2 5 7 3 4 5 4 8 7 6 6 5 5 4 5 5 5 6 7 7 8 8 9 10 10 10 10 10 10 10 10 9 8 7 6 6 8 10 13 13 11 10 11 11 9 7 7 7 7 6 5 6 7 9 9 8 7 8 8 8 10 11 11 12 9 5 5 6 7 7 6 5 5 5 6 8 11 13 14 13 12 12
2 1 3 2 1 5 7 4 1 1 1 2 5 2 3 3 3 8 6 4 3 6 9 8 7 6 5 5 4 4 5 6 6 6 7 7 7 8 8 9 9 10 10 10 9 9 8 8 8 8 9 9 10 12 13 13 13 12 11 9 8 7 6 6 5 3 3 4 4 6 5 5 8 9 7 8 10 10 9 6 3 4 6 7 8 8 8 8 8 9 10 11 12 13 14 14 13
3 0 3 2 2 3 6 3 2 1 1 3 3 1 3 2 2 7 7 4 3 8 9 8 7 6 5 5 4 4 5 5 5 6 6 7 7 8 8 8 9 9 10 10 9 8 8 9 8 9 11 11 11 12 11 12 13 12 11 9 8 6 4 4 3 1 1 1 0 1 2 1 3 5 3 4 5 6 6 5 5 4 5 6 8 10 11 10 12 13 13 14 14 16 18 19 19
3 1 2 3 3 2 3 3 3 4 3 1 2 1 5 3 4 9 7 4 4 9 9 7 7 6 5 5 4 5 5 5 6 6 7 7 7 7 7 8 8 8 9 9 9 10 10 10 10 11 13 13 12 12 12 10 9 9 9 8 7 6 4 4 4 2 2 2 2 3 4 5 2 1 2 2 3 4 4 5 6 6 6 7 8 9 10 9 10 11 12 14 17 19 22 24 25
3 2 2 3 3 3 4 4 2 4 3 1 1 2 8 5 5 9 8 5 5 9 9 7 7 6 6 5 5 6 6 6 7 7 7 6 6 6 6 6 7 7 8 9 10 11 12 13 13 13 14 15 15 15 13 10 9 9 9 8 8 7 5 4 4 2 2 2 3 3 3 4 4 3 3 3 4 5 4 4 5 6 6 7 7 8 9 10 12 13 14 15 17 19 20 22 25
6 5 4 3 3 4 4 5 4 1 2 4 4 5 9 5 2 6 7 6 7 10 8 8 7 6 6 7 7 7 7 8 8 7 5 5 5 5 5 5 6 7 8 9 10 11 13 15 15 16 16 15 15 15 13 11 11 11 10 9 9 9 6 4 3 2 2 2 2 3 4 4 4 4 4 5 5 6 6 7 7 8 9 9 10 11 13 16 18 18 18 18 18 19 19 21 22
5 4 3 3 4 5 3 3 4 0 1 5 4 4 8 5 2 3 2 5 8 9 8 8 7 7 7 8 8 8 8 9 7 6 5 5 6 7 8 8 8 9 10 11 12 13 15 15 16 17 17 14 13 13 12 12 11 10 9 8 8 8 6 3 4 4 2 1 1 2 4 5 5 6 7 8 9 10 11 12 12 13 13 14 15 15 17 18 19 19 19 20 20 20 20 20 22
4 4 3 3 4 5 4 2 4 1 3 4 2 2 8 4 0 3 1 3 5 5 6 7 7 7 8 8 9 9 9 9 7 7 8 10 11 12 13 13 14 15 16 16 16 16 16 16 16 17 15 13 13 12 12 13 13 11 12 12 10 10 9 7 7 7 4 3 2 1 1 2 3 4 5 6 7 8 9 10 12 13 14 16 18 18 19 18 18 19 19 19 18 18 18 19 20
2 3 2 4 4 3 4 2 4 3 2 3 3 3 7 2 2 4 5 5 5 4 5 6 6 7 8 9 10 10 10 10 10 11 13 14 15 16 17 19 20 21 21 21 21 20 19 19 19 18 17 17 17 16 16 18 18 17 17 16 14 14 15 12 11 11 8 7 6 6 5 4 3 2 2 2 2 3 3 4 5 7 9 10 12 12 13 13 13 13 14 14 14 15 15 15 17
3 3 3 4 3 2 3 3 3 3 1 1 2 4 6 0 3 3 5 6 7 6 5 6 6 7 8 9 10 11 13 14 14 15 16 17 18 19 20 21 22 22 23 23 23 23 23 23 22 21 21 21 20 19 20 21 20 19 18 17 16 16 17 14 12 12 10 9 9 9 8 8 7 6 5 5 4 4 4 3 3 3 3 4 4 5 5 6 7 8 9 10 10 11 11 12 13
4 5 6 5 4 5 5 2 2 2 3 1 2 4 5 0 1 1 3 5 6 6 6 7 6 7 8 9 11 13 15 17 18 19 18 19 19 20 21 21 22 22 23 24 23 23 23 23 23 22 22 21 21 20 19 19 19 18 17 17 16 16 16 13 11 12 11 10 10 10 10 9 8 7 7 7 7 7 7 7 7 7 6 6 6 6 6 6 6 7 7 8 9 9 10 11 11
3 5 10 10 7 6 3 1 2 3 3 2 3 2 4 3 1 1 1 2 3 3 4 6 6 7 8 10 12 14 16 18 19 20 20 20 20 20 21 21 21 22 23 23 22 22 22 22 22 21 20 20 20 19 17 16 16 16 16 15 14 14 14 13 12 12 11 10 10 10 10 9 9 8 8 8 8 9 9 9 9 9 9 9 9 9 9 8 9 9 9 10 10 10 10 11 11
2 4 9 9 6 6 4 3 3 1 2 1 2 1 4 5 3 1 1 1 2 1 2 3 6 7 9 11 13 14 16 19 20 21 21 21 21 20 20 20 20 21 21 21 20 20 20 20 19 19 19 19 18 17 15 13 14 15 14 13 13 11 11 12 13 12 12 11 10 10 10 10 10 10 10 10 10 11 11 11 11 11 11 12 11 11 11 12 13 13 14 13 13 13 13 12 13
3 3 5 7 7 7 6 6 4 2 2 3 3 2 2 4 3 2 0 1 2 1 1 2 6 8 10 12 13 15 17 19 21 21 21 21 20 20 20 19 19 20 19 18 18 18 17 17 17 17 17 17 17 16 13 11 11 12 11 10 10 9 10 12 13 12 12 10 9 10 11 11 11 11 11 12 12 12 12 12 12 12 12 13 13 13 13 14 14 14 14 14 15 15 15 15 16
4 3 6 6 6 6 5 6 3 0 1 3 4 1 1 4 3 3 3 1 3 2 4 6 9 10 11 13 14 16 18 19 21 21 21 21 20 19 19 18 18 18 18 17 16 15 15 15 14 14 15 15 14 13 10 9 8 8 8 8 8 10 11 12 12 12 12 10 8 10 11 11 11 11 11 11 11 11 11 12 12 12 12 13 14 14 14 14 14 14 14 15 16 16 16 16 16
3 7 7 5 5 5 4 4 3 2 1 4 5 3 2 4 4 2 2 2 5 5 5 7 11 13 12 15 16 18 19 20 21 21 21 20 19 19 18 18 17 16 16 15 14 13 13 12 11 11 12 12 11 10 8 8 8 7 8 8 10 12 13 13 12 11 11 9 9 10 10 11 11 10 11 11 10 10 11 11 11 11 12 12 12 13 13 14 14 15 16 16 16 16 16 16 16
9 8 6 6 5 4 3 2 3 2 2 5 4 2 2 2 4 3 3 4 5 7 5 6 11 15 17 18 19 20 20 21 22 22 21 20 19 18 17 17 16 15 15 13 13 12 11 10 9 8 10 10 10 9 7 7 8 8 9 10 12 14 14 12 11 11 11 9 9 10 10 10 10 10 11 10 10 11 11 12 12 12 12 12 13 13 14 15 15 15 15 15 15 16 16 15 15
7 4 4 4 2 3 3 4 3 1 4 5 2 1 2 3 4 4 5 5 4 8 8 9 13 19 22 22 22 22 21 22 23 22 21 20 19 18 17 16 15 14 13 12 11 10 9 8 6 6 9 10 9 8 7 8 9 9 11 12 13 14 13 11 10 10 10 9 9 10 9 9 9 9 9 10 10 11 11 12 12 12 13 13 14 14 15 15 15 15 16 16 16 16 15 15 16
3 3 5 4 1 3 2 3 1 2 5 3 1 1 2 5 6 5 6 6 6 7 8 13 21 25 26 26 24 23 23 23 23 22 21 20 19 18 17 16 15 14 13 12 11 10 8 8 6 5 8 10 9 9 9 9 10 10 11 11 12 12 11 9 9 9 9 9 9 9 8 8 9 9 10 11 11 12 12 12 13 14 14 15 15 15 15 15 15 15 16 16 16 17 17 17 17
4 4 5 4 3 3 1 3 2 3 3 2 1 1 1 4 5 5 6 4 4 6 6 13 25 31 30 29 26 24 24 24 24 23 22 20 19 18 17 16 15 14 13 11 10 9 8 8 8 6 8 11 10 10 9 9 10 10 10 10 10 9 8 7 7 8 8 8 8 9 9 10 10 11 12 12 13 13 13 14 14 14 15 15 15 15 16 16 16 16 16 17 17 17 17 17 16
4 3 5 4 4 4 3 3 3 3 2 2 2 1 3 3 2 2 3 2 3 5 7 10 20 29 30 28 27 26 25 25 24 23 22 21 19 18 17 16 15 14 13 12 11 10 9 9 9 8 8 11 11 10 9 8 9 10 9 9 8 7 7 6 7 7 8 8 8 9 10 11 12 13 13 14 14 14 14 14 15 15 15 15 16 16 16 16 17 17 17 17 17 18 18 18 18
2 2 4 3 4 4 2 3 5 3 2 3 2 3 4 3 1 3 3 2 2 3 8 11 18 25 27 27 28 27 27 26 26 25 24 22 21 19 18 17 16 15 14 13 12 11 10 10 10 9 9 11 11 10 9 8 9 9 8 7 7 7 7 7 7 7 7 8 9 9 10 11 12 13 13 14 15 15 16 16 16 16 16 16 17 17 17 17 18 18 18 18 18 19 19 20 20
2 2 3 4 3 6 4 2 2 3 1 3 2 2 4 1 2 3 3 2 2 1 7 13 18 23 26 28 29 29 29 29 28 27 25 23 22 20 19 18 17 15 14 13 13 12 11 10 10 10 10 11 11 10 9 8 8 7 6 6 6 6 6 7 7 7 8 9 10 11 11 11 12 13 13 14 15 16 16 17 17 18 18 18 18 18 19 19 19 20 20 21 21 21 21 22 22
4 3 5 3 2 4 3 1 2 3 2 4 1 3 3 0 2 2 2 2 4 3 5 9 15 22 26 29 31 31 31 30 29 27 26 24 23 22 20 19 17 16 15 14 13 13 12 11 11 10 11 11 11 10 9 8 7 6 5 6 5 6 6 6 7 8 9 10 10 11 12 12 13 13 14 14 15 16 16 17 18 18 19 20 20 21 21 21 22 22 23 23 24 25 25 25 25
4 4 3 3 3 2 2 2 1 1 3 4 2 3 3 4 4 2 4 8 8 5 5 7 13 22 28 31 33 34 33 32 31 29 28 26 25 23 21 20 18 17 16 16 15 15 14 14 12 12 11 11 11 10 9 8 6 5 4 4 4 5 6 7 7 8 9 10 11 12 13 13 14 14 15 15 15 16 16 16 17 18 19 20 21 22 22 23 24 25 25 26 26 27 28 28 28
4 2 2 2 2 3 2 2 2 2 2 4 4 3 3 5 6 7 10 12 10 9 7 9 17 27 33 36 38 38 37 36 34 32 30 28 26 24 22 20 19 19 18 17 17 16 16 15 14 13 12 12 11 10 9 7 6 4 3 3 3 4 5 7 8 10 11 12 13 14 14 15 16 16 16 16 17 17 17 18 18 18 19 19 20 22 23 24 25 26 27 28 29 30 31 32 32
2 2 1 0 1 2 1 1 2 3 3 2 3 5 5 4 3 7 9 8 9 13 12 13 20 29 33 37 41 41 40 38 36 33 31 28 26 25 23 22 20 20 19 19 18 17 17 16 15 14 13 13 12 11 9 7 5 3 2 1 2 4 6 8 10 12 14 15 15 16 16 17 17 18 18 18 18 18 19 19 19 20 20 21 22 23 24 26 27 28 29 30 31 32 32 34 34
5 4 5 5 4 4 2 2 0 2 2 4 3 5 7 3 2 4 5 4 8 14 13 13 21 29 33 38 40 40 39 39 37 34 31 29 28 26 25 24 23 22 22 21 20 19 18 17 16 16 15 14 13 11 9 6 4 3 1 1 3 6 8 11 13 15 16 17 18 18 18 18 19 19 19 20 20 20 20 20 21 21 22 23 24 25 26 28 29 30 31 31 32 33 34 35 35
Wind_Direction
332 331 327 302 319 312 333 3 89 24 61 95 321 87 234 239 282 293 282 291 258 298 232 245 185 165 189 246 245 258 228 200 190 86 17 320 347 347 346 344 338 30 158 182 189 190 186 188 191 188 187 187 188 191 197 201 206 210 214 219 225 234 244 257 266 246 205 181 164 153 128 115 103 93 89 99 109 108 119 123 125 127 116 89 39 49 44 83 82 64 54 52 48 44 40 39 38
354 18 35 66 26 23 235 29 99 351 50 88 275 183 281 299 317 245 231 225 183 349 344 255 193 205 252 271 277 281 253 239 236 294 332 346 354 350 349 344 312 18 142 176 188 193 188 189 193 194 194 192 192 195 199 205 209 211 215 221 227 238 243 248 243 214 197 198 200 170 129 100 81 68 62 76 93 109 129 131 132 135 136 134 126 64 19 83 90 66 51 43 41 34 26 19 13
24 46 43 59 46 67 139 49 99 61 75 93 289 231 302 291 239 240 233 240 292 331 337 8 210 217 231 277 304 138 352 318 300 329 11 16 6 1 354 351 318 334 140 168 184 195 193 192 194 197 199 198 198 200 205 209 212 213 217 221 223 236 245 246 225 198 196 203 199 178 135 88 63 45 30 30 38 104 158 149 143 149 170 165 136 136 29 69 85 67 58 51 43 28 13 358 348
40 45 22 18 96 65 87 44 128 118 112 146 334 256 250 201 235 251 272 316 325 326 46 18 32 189 240 324 299 201 350 7 32 12 38 22 12 11 4 9 350 305 147 165 178 193 199 197 196 198 202 202 204 205 208 212 215 216 217 218 219 229 238 240 217 196 196 202 194 183 158 110 64 31 13 3 358 245 218 173 159 167 182 175 165 195 37 65 85 58 40 27 11 354 341 327 316
26 22 10 1 171 67 83 73 98 96 157 178 114 249 238 216 239 263 317 350 347 43 59 355 54 25 311 329 311 223 9 27 37 22 19 11 16 22 23 32 31 354 141 160 175 188 199 203 202 201 202 203 206 207 211 213 213 213 212 212 216 222 227 227 212 200 201 203 197 186 172 148 26 17 7 357 320 208 215 188 170 179 189 186 188 191 48 60 89 348 334 329 330 327 319 309 299
14 10 17 59 106 88 112 101 102 100 196 175 131 237 245 227 237 279 327 33 83 70 10 1 55 336 339 9 337 359 3 1 3 355 336 347 3 27 47 51 51 53 140 160 172 185 197 205 208 206 205 204 206 207 209 211 209 208 208 209 212 215 216 217 208 202 208 209 204 197 192 209 350 9 353 347 263 191 194 193 185 190 201 209 205 48 17 3 316 298 297 306 311 310 303 297 292
6 1 7 72 72 45 103 120 157 153 189 178 159 229 250 265 256 295 336 66 72 48 42 39 23 344 86 358 343 10 3 1 2 348 327 319 329 27 71 68 67 52 59 176 176 183 195 205 211 212 210 207 209 211 210 210 208 208 207 208 211 212 211 214 210 205 211 214 211 213 220 256 313 334 327 312 243 208 182 181 194 205 215 229 235 305 320 321 310 295 294 306 308 304 297 293 291
360 355 1 85 37 26 90 112 185 190 308 236 246 243 259 299 283 290 353 56 21 17 28 26 22 37 37 332 339 21 14 15 11 2 344 319 296 2 98 85 86 62 44 189 195 190 195 204 212 215 215 212 214 216 214 213 213 213 209 208 213 213 212 217 216 211 214 215 217 222 235 260 289 311 318 283 241 235 211 181 188 208 220 233 255 293 308 313 310 308 316 325 323 314 304 302 299
4 354 10 81 67 39 48 71 184 244 275 271 255 261 279 317 293 274 3 20 351 335 353 10 40 25 339 325 357 36 36 39 27 22 11 351 291 291 153 111 104 89 66 64 210 207 204 204 210 215 218 215 217 221 218 216 218 221 214 211 215 215 218 221 224 222 220 220 223 229 238 251 260 289 306 265 243 240 225 197 190 209 222 244 277 296 309 314 315 323 330 334 333 326 320 320 314
7 17 73 87 76 59 15 228 248 250 254 276 269 285 297 312 298 307 357 14 353 329 341 2 126 22 334 324 25 42 50 52 31 24 21 16 337 276 202 145 118 101 91 71 198 222 216 211 210 212 217 217 220 223 221 219 220 224 222 214 214 218 220 224 230 232 230 228 228 231 237 242 248 267 279 251 244 242 224 205 202 216 233 257 282 297 307 311 316 324 331 335 336 333 331 335 335
3 26 74 83 72 108 182 207 276 278 274 298 293 326 355 316 321 28 9 3 342 332 341 357 106 14 335 323 20 41 54 43 22 15 14 12 2 313 255 199 142 95 88 54 26 275 229 218 216 214 215 216 219 224 224 223 221 225 227 219 214 218 221 224 228 233 237 234 232 234 234 240 252 262 268 250 240 245 235 224 222 229 243 258 274 289 299 306 311 320 329 334 336 338 341 349 3
4 18 54 89 109 175 190 197 268 291 305 327 15 25 29 1 43 60 6 6 332 340 357 2 359 352 338 331 1 42 38 11 5 3 359 359 359 334 290 269 242 287 327 7 13 348 280 232 224 220 219 217 218 223 226 225 224 225 227 226 220 219 222 224 227 232 236 236 235 232 231 240 253 261 264 249 238 242 244 244 242 240 250 260 269 277 289 299 305 317 327 331 334 340 346 358 20
69 141 72 97 150 162 144 188 270 307 325 317 182 11 5 341 43 33 18 18 334 0 11 355 342 336 307 315 350 18 344 348 349 348 345 343 348 338 302 277 261 257 262 286 339 355 334 270 239 228 225 224 222 223 226 226 227 227 228 228 227 226 224 225 229 232 235 235 234 230 231 240 250 259 258 247 242 241 242 247 248 248 257 265 268 272 282 292 303 315 324 327 332 340 346 356 20
81 140 95 113 75 143 153 64 293 173 250 259 251 2 4 11 43 34 31 16 6 28 349 335 325 316 323 326 350 350 338 338 338 338 341 342 346 340 307 279 263 251 246 243 253 309 339 305 268 244 233 229 228 227 228 227 227 230 231 230 229 231 228 227 230 232 235 234 232 232 235 244 253 258 257 252 247 243 242 245 250 254 260 265 270 274 280 294 306 315 323 325 330 336 338 346 12
80 108 92 111 57 26 179 144 120 133 183 253 348 358 14 66 42 32 47 24 344 338 327 315 306 303 322 335 339 336 330 326 327 328 334 347 355 342 319 294 275 259 250 244 245 257 288 304 286 265 250 239 235 233 234 231 229 230 231 234 233 234 235 233 233 233 234 232 233 235 237 245 252 256 257 255 250 247 248 251 256 260 263 268 274 276 283 299 308 314 320 324 327 328 327 334 0
70 81 77 88 87 296 188 170 148 127 220 239 12 360 21 71 28 34 16 321 305 317 317 302 295 289 301 319 325 321 317 316 319 314 309 318 332 312 320 316 300 279 262 256 255 258 266 284 287 277 266 256 246 239 238 237 235 232 232 235 235 235 238 237 238 238 235 233 233 234 239 244 246 253 256 253 253 254 254 256 261 262 266 273 276 280 290 302 306 312 323 327 322 315 318 323 344
56 58 73 62 128 214 192 182 179 150 259 253 343 357 8 345 14 20 325 309 304 307 308 305 296 291 301 313 312 310 311 316 318 309 297 276 234 207 223 266 275 272 264 260 259 260 263 272 281 280 275 267 260 250 241 239 238 237 234 234 236 239 240 240 243 244 241 238 235 235 237 242 243 247 253 254 256 257 259 262 265 266 268 270 275 286 294 302 306 311 329 333 315 307 307 307 321
45 84 86 15 185 195 180 183 192 169 268 265 321 341 342 315 345 347 324 303 309 310 313 321 314 298 302 307 308 309 314 318 316 310 296 267 241 215 219 232 237 244 242 245 247 250 254 261 271 277 278 274 269 263 253 244 239 239 237 235 236 239 242 241 241 247 251 247 244 241 237 241 243 243 247 252 254 257 262 267 272 273 269 266 275 288 293 300 305 311 339 340 315 303 296 290 303
70 106 82 245 202 209 195 186 194 188 285 292 314 328 307 303 322 336 324 298 318 320 321 333 346 2 306 313 316 318 322 324 327 331 331 325 295 258 249 246 243 244 240 240 238 240 245 250 259 266 270 273 272 270 266 258 244 239 237 236 234 237 243 243 240 243 253 257 254 250 244 243 246 247 248 248 252 256 261 267 273 274 270 271 278 283 289 299 304 317 343 341 322 305 290 280 284
82 104 100 242 217 231 229 213 223 244 289 300 313 316 298 308 315 317 304 302 313 310 314 327 333 322 320 324 329 338 349 2 16 26 27 33 27 11 356 332 292 264 250 245 242 242 244 243 246 250 254 260 264 268 269 268 259 246 239 236 234 235 238 242 244 242 247 256 255 256 257 250 248 252 253 252 251 253 259 265 268 270 275 282 283 283 292 299 304 328 341 338 328 310 291 275 271
149 134 164 215 183 239 254 237 266 281 290 293 303 308 308 326 327 300 305 318 308 294 307 313 315 315 321 328 335 359 20 25 28 35 31 34 28 14 2 351 337 317 293 270 258 253 252 250 247 244 242 242 247 255 262 268 267 258 246 239 237 235 231 235 245 247 248 249 248 254 260 257 253 253 258 257 251 251 255 261 267 272 279 286 287 292 301 303 304 325 338 338 331 317 297 276 265
162 192 201 179 154 229 290 300 313 309 303 297 300 306 311 323 320 300 290 293 291 303 303 302 305 307 317 338 359 20 16 9 18 18 14 13 6 358 349 341 329 318 308 292 279 267 262 258 254 248 241 235 233 239 250 261 266 265 258 245 238 236 228 231 246 252 249 248 249 254 258 260 257 255 258 259 262 261 257 264 268 269 282 291 296 305 312 309 308 317 331 335 330 324 306 282 264
182 253 240 203 199 243 285 299 308 308 304 298 296 300 304 313 320 328 338 293 286 294 296 298 299 296 19 64 48 20 7 8 9 1 359 355 348 344 340 334 323 310 298 289 280 270 265 262 258 252 242 232 224 224 234 247 259 266 266 252 235 236 227 224 235 243 246 249 252 256 261 262 260 261 261 262 270 267 271 281 267 264 285 294 303 311 309 306 307 308 314 325 326 325 316 295 273
150 254 270 252 241 257 284 293 298 297 293 292 295 293 293 302 306 335 6 346 299 288 285 307 103 103 113 127 54 32 28 25 14 2 351 342 338 337 337 333 327 318 307 298 289 279 271 267 262 255 244 229 216 210 216 230 247 256 263 260 234 241 247 235 228 231 243 250 248 249 257 265 265 266 264 267 267 258 271 292 270 267 278 287 302 306 300 302 307 304 304 313 320 322 322 308 288
158 229 278 255 258 273 290 292 292 293 292 293 290 276 283 296 287 325 17 26 108 145 146 111 111 111 110 45 26 25 19 17 14 4 345 338 335 332 330 328 329 324 318 312 302 296 285 276 266 254 240 223 207 195 197 210 226 237 242 236 215 226 240 240 228 229 246 256 250 244 245 257 265 265 262 265 266 257 262 277 276 271 268 283 298 297 296 302 305 302 302 305 309 317 322 315 300
192 209 279 275 282 292 295 289 288 289 288 287 277 272 290 314 286 48 50 89 123 138 153 126 137 199 1 12 11 8 4 3 359 357 356 351 339 327 326 328 335 340 345 344 328 316 298 285 267 247 230 211 192 177 180 188 198 210 210 203 196 220 241 237 229 233 248 262 258 246 245 248 252 266 265 260 265 264 262 265 273 270 270 287 289 286 295 302 301 296 299 300 303 314 320 316 307
193 240 288 277 290 300 296 285 284 283 281 274 255 270 296 89 131 86 48 113 141 154 150 136 175 265 31 24 11 5 1 358 355 356 352 342 337 339 346 352 353 2 8 10 8 360 345 312 255 229 215 195 176 165 168 171 181 187 179 199 190 220 247 251 247 238 237 255 255 247 248 249 253 271 266 264 272 266 262 262 262 269 277 283 280 278 285 294 299 297 299 302 305 313 317 315 310
2 338 303 292 311 311 297 289 290 284 282 276 239 253 327 95 110 80 63 114 149 182 135 117 111 81 70 59 35 17 3 4 358 348 345 347 359 4 9 14 10 12 15 20 25 21 16 8 230 208 198 182 167 159 160 162 167 167 170 195 187 190 211 217 233 230 224 243 246 236 239 246 254 265 253 267 271 244 240 270 260 266 276 278 279 279 281 287 296 299 299 301 304 308 310 310 307
346 15 326 308 339 330 308 318 321 271 292 318 222 275 353 35 74 68 44 119 179 229 117 98 87 86 79 69 45 31 16 8 356 351 6 16 22 21 22 26 21 19 21 27 34 33 32 36 72 189 188 176 163 152 151 157 151 144 155 175 194 205 203 208 216 212 217 232 230 225 235 243 246 251 246 262 262 227 227 266 256 257 272 283 290 289 287 285 285 291 295 298 301 299 300 303 303
317 34 28 321 349 331 316 14 342 332 284 303 108 296 309 349 14 23 346 209 206 159 104 101 93 89 75 65 44 36 26 7 7 19 33 35 32 30 31 34 30 26 28 31 36 42 48 53 72 141 175 171 159 141 137 147 147 158 178 183 192 202 197 188 174 171 196 211 213 218 228 230 229 236 237 246 251 237 246 257 239 236 252 267 286 286 285 288 294 301 302 301 299 296 299 302 299
321 12 35 1 359 282 298 340 315 19 304 212 133 251 260 230 359 21 70 181 195 125 99 102 94 90 76 63 46 33 31 28 39 47 49 46 40 36 37 39 36 34 34 32 36 45 55 64 80 110 137 152 151 139 141 146 143 156 172 175 174 179 183 178 176 192 205 207 215 223 227 223 224 236 242 247 251 249 254 251 219 225 251 257 263 265 268 280 291 300 302 301 300 300 301 301 298
26 342 308 342 152 267 309 338 330 125 39 63 126 209 271 201 0 28 88 142 158 113 98 96 88 85 79 65 56 47 52 59 66 68 61 56 50 41 41 41 39 41 42 44 48 52 59 69 85 106 119 129 136 138 146 149 149 154 150 149 162 173 179 180 191 220 208 200 208 222 238 230 225 244 253 244 240 236 244 260 250 248 276 285 280 279 281 282 283 287 290 292 297 298 295 295 297
3 125 246 272 198 277 321 344 13 66 125 38 82 203 285 198 27 34 91 117 102 105 96 90 86 82 80 75 78 81 86 92 88 82 72 64 58 50 47 46 47 50 53 58 63 65 70 77 87 101 110 117 123 125 132 141 152 158 157 161 170 177 179 181 193 286 284 248 165 225 300 352 192 224 249 225 224 225 237 272 287 275 283 287 283 286 290 293 294 294 294 294 296 295 295 297 296
312 43 220 247 213 221 304 302 355 29 105 41 38 167 259 215 67 39 75 98 86 99 94 90 88 84 87 90 99 103 107 110 97 84 74 65 61 57 52 51 57 60 63 68 71 77 83 87 91 98 104 109 112 115 119 130 140 140 151 169 177 177 171 177 197 244 274 290 322 317 331 344 337 285 309 282 277 287 279 281 289 286 277 269 272 281 288 294 297 297 297 296 295 295 297 298 298
197 166 187 246 237 221 258 265 295 9 23 328 318 249 262 238 72 43 62 88 97 99 98 98 96 96 103 106 111 111 110 107 94 82 74 67 64 61 60 63 70 72 74 79 81 87 92 95 98 100 100 103 107 112 117 122 126 127 135 147 152 152 150 172 206 241 254 286 321 328 325 324 323 318 317 315 303 298 295 298 301 302 299 296 300 302 303 310 311 305 299 296 295 296 298 298 298
169 168 155 181 228 245 238 243 256 314 328 280 246 240 264 266 28 35 64 89 101 107 108 105 104 109 114 116 115 112 110 104 94 86 78 71 71 73 82 89 93 96 94 94 95 96 98 99 101 101 98 99 104 109 113 116 119 123 130 137 141 139 148 180 177 153 203 270 303 309 310 313 313 300 295 298 297 295 297 300 302 303 307 310 315 314 309 306 304 300 297 299 301 302 302 302 302
131 133 141 184 220 261 246 246 287 273 194 272 251 239 270 270 301 353 79 105 95 102 108 106 113 119 120 122 118 115 111 103 95 93 93 89 92 96 100 105 109 111 110 107 105 101 100 102 102 100 98 99 101 99 101 107 109 116 128 136 139 135 136 157 145 143 172 239 268 288 302 315 318 310 306 302 300 300 297 295 294 293 295 298 300 300 295 292 291 291 291 295 298 300 303 305 305
115 136 186 241 225 252 260 251 311 355 181 269 343 289 275 256 257 349 52 105 76 89 109 111 122 124 124 125 118 116 111 106 107 108 109 106 105 107 107 110 113 112 111 109 105 103 104 106 104 102 104 106 103 100 100 103 100 99 104 104 105 111 106 105 115 112 90 82 86 49 21 359 338 323 317 311 303 297 289 286 284 281 281 282 282 282 281 281 284 285 285 289 293 298 304 308 308
143 135 174 259 232 250 288 303 336 8 177 263 4 327 276 255 78 26 52 80 76 98 124 123 131 129 125 123 118 121 120 121 125 120 117 115 112 113 113 111 110 107 106 104 103 103 105 104 103 103 105 103 100 99 99 98 96 94 93 93 95 99 96 93 96 94 86 84 86 82 78 72 58 39 24 359 329 317 297 288 282 276 274 273 275 278 278 280 281 282 283 288 294 300 307 310 311
188 159 175 246 223 190 269 284 320 2 89 253 354 315 280 220 81 41 60 89 93 101 123 126 134 130 122 122 122 127 129 129 129 124 121 119 116 114 111 107 105 103 103 102 102 102 102 101 101 102 101 100 99 98 95 94 94 95 95 97 99 98 94 92 94 95 94 92 91 90 87 81 72 66 61 52 38 33 25 14 2 341 322 313 308 301 299 298 295 294 293 294 298 302 307 310 311
233 199 203 231 209 207 236 277 308 347 27 20 23 326 294 282 130 46 80 106 99 102 125 123 128 128 123 126 129 132 132 129 128 125 122 120 117 112 108 105 104 105 103 101 101 101 100 100 99 99 99 97 96 94 92 93 94 96 97 98 98 96 97 99 99 95 94 94 91 85 80 75 67 61 57 49 43 38 32 29 24 18 16 12 8 5 360 351 337 328 321 315 313 313 315 314 313
273 224 213 221 206 202 225 29 30 14 358 356 43 353 295 318 321 179 140 111 87 103 122 117 126 132 135 138 135 137 134 131 129 127 125 121 116 111 107 107 106 105 103 100 99 98 98 98 97 96 95 93 91 89 89 90 92 93 93 94 96 98 103 105 97 91 90 86 79 74 70 67 61 57 54 48 44 40 35 31 26 22 21 18 18 16 10 6 360 355 351 344 339 336 333 325 320
278 237 206 207 182 164 166 130 105 113 255 312 50 170 260 309 314 215 157 122 60 69 102 128 148 147 150 149 143 143 138 134 133 129 125 120 115 112 109 107 106 103 100 97 96 96 96 96 95 95 93 91 88 86 88 88 89 92 91 94 99 99 100 97 89 84 82 77 74 73 69 65 60 54 51 49 44 41 38 35 31 27 24 23 23 18 15 16 13 9 6 1 358 353 348 342 339
225 227 155 158 165 171 171 149 152 205 245 323 355 155 240 288 277 300 100 137 27 15 279 213 176 166 162 156 151 149 143 138 135 130 126 122 117 115 112 109 107 102 99 97 97 96 96 95 95 95 93 91 90 90 93 93 90 92 91 93 98 94 90 91 89 84 81 80 80 77 71 67 62 56 52 49 45 42 38 35 33 28 26 25 23 20 21 21 18 16 13 9 7 3 360 359 355
236 183 117 134 152 156 146 133 153 211 43 298 297 165 239 273 265 339 18 294 295 248 234 225 192 180 171 164 159 154 149 144 139 134 130 126 122 119 116 112 108 105 103 102 102 100 99 99 99 99 98 97 98 100 104 104 97 94 92 91 96 97 93 92 93 92 90 87 82 78 72 67 63 58 54 50 46 43 38 34 31 25 22 21 18 17 16 14 11 10 9 8 9 6 4 3 360
169 124 91 80 78 86 100 112 128 74 68 242 248 193 203 275 279 329 47 269 255 220 221 215 193 187 178 172 167 161 156 150 143 140 135 131 128 124 120 117 113 113 113 111 109 107 106 105 105 108 109 107 109 111 112 111 106 100 98 97 96 99 99 101 104 101 97 91 85 81 75 68 64 57 53 49 42 40 35 29 23 18 17 15 11 9 6 3 2 1 1 1 1 1 1 360 359
131 112 75 62 44 43 53 62 92 71 292 249 247 215 184 265 276 230 187 231 206 176 193 202 190 190 185 179 175 169 163 155 148 144 140 136 133 129 126 124 123 122 122 120 119 118 116 115 115 117 116 115 116 117 114 111 108 102 101 101 99 102 107 111 113 105 99 95 86 79 72 66 60 51 46 38 33 30 25 19 15 12 10 6 2 0 359 357 357 357 356 354 352 352 353 352 352
117 99 91 96 6 13 28 357 41 97 254 258 282 329 179 212 257 236 219 241 201 172 182 182 185 193 189 183 180 175 167 159 154 150 146 143 140 138 137 135 134 133 132 132 130 128 126 126 131 128 123 123 124 125 122 116 115 111 109 109 108 111 116 117 114 105 98 90 78 73 67 60 51 42 34 25 19 16 12 8 5 1 358 356 356 354 353 351 350 349 347 345 346 346 345 345 344
88 95 105 109 351 14 8 314 331 211 246 271 338 349 216 226 249 235 213 222 216 200 191 181 181 188 189 186 182 178 171 165 160 155 153 151 149 147 146 146 145 144 144 144 143 143 140 140 150 149 136 135 135 136 134 129 127 122 120 119 115 116 118 113 104 95 86 75 66 58 47 41 31 22 15 9 5 3 359 355 352 350 349 349 349 347 345 343 342 341 340 340 341 341 341 341 341
159 148 129 126 100 73 285 270 286 263 256 284 311 303 242 256 264 232 205 206 216 212 202 189 186 185 186 185 183 180 176 170 165 163 161 158 156 156 155 155 156 156 155 156 156 158 158 157 165 171 153 145 145 144 142 141 137 129 126 121 113 111 105 94 84 73 63 52 42 31 22 18 11 6 4 1 359 355 350 347 346 344 342 340 339 337 337 336 335 335 335 335 335 336 336 335 335
181 165 129 141 147 155 215 218 212 246 277 311 307 243 192 205 264 270 257 299 287 227 206 193 192 189 186 185 186 185 181 174 170 169 168 165 164 164 164 164 165 166 166 168 169 171 174 171 172 176 164 153 152 150 149 150 142 131 124 115 106 99 87 76 67 56 47 35 25 17 9 5 2 360 357 354 351 347 344 342 341 338 336 334 332 331 330 329 328 328 328 328 328 328 327 327 326
209 138 112 151 177 153 163 183 174 182 292 296 242 226 218 192 245 321 330 329 325 236 201 187 191 192 190 191 191 189 185 179 176 176 174 173 172 171 172 172 174 176 176 178 180 180 182 181 177 177 171 161 157 156 154 150 142 130 119 108 98 87 75 65 56 47 36 26 16 8 3 359 355 351 347 343 339 337 335 334 333 333 332 330 329 329 328 327 327 326 326 325 324 323 323 322 321
153 138 169 210 175 118 119 184 100 84 283 270 198 240 290 336 273 318 15 351 329 267 194 185 187 190 193 196 195 192 188 183 181 181 179 178 178 178 179 179 181 183 184 186 187 186 187 189 187 183 176 168 163 162 157 148 139 129 116 103 89 78 65 52 43 34 25 19 9 2 359 353 347 341 336 332 328 326 324 324 324 324 324 324 324 324 324 324 324 323 323 323 322 322 321 321 319
125 179 202 186 124 86 104 179 21 51 250 274 248 229 261 222 252 311 19 285 267 239 196 185 186 190 196 200 198 195 191 187 186 184 184 185 184 184 185 185 186 188 191 193 192 190 189 189 190 188 183 176 170 167 161 152 143 131 116 100 84 67 50 36 28 21 15 7 357 353 350 345 342 337 332 328 324 322 320 319 318 318 318 319 319 319 319 320 320 320 320 320 320 320 319 319 318
107 175 167 114 128 127 101 140 195 211 248 286 287 246 236 196 203 210 209 224 221 202 197 193 192 195 199 202 200 197 193 191 190 189 188 189 189 189 189 189 190 192 196 197 196 195 191 187 186 185 185 181 177 175 171 164 154 137 114 89 68 48 34 21 12 5 358 350 343 341 339 337 336 333 331 329 327 326 325 323 322 321 321 320 320 320 320 321 321 321 321 320 320 319 318 318 317
41 83 68 40 130 151 147 146 160 182 234 288 289 281 257 224 200 182 198 211 193 177 192 205 203 200 200 201 200 198 195 194 193 192 191 191 192 193 193 194 197 199 199 200 199 197 194 190 189 189 190 189 186 183 180 173 159 137 110 75 48 26 14 1 353 348 342 338 335 334 332 331 330 329 329 328 327 327 326 325 324 322 321 321 320 320 320 320 320 320 320 320 319 319 318 317 317
110 114 126 82 89 100 155 155 111 132 175 228 276 283 268 241 196 185 203 212 186 182 191 202 206 204 202 203 202 199 197 196 196 193 192 194 195 196 197 198 201 201 201 201 200 199 197 195 195 195 198 198 195 192 187 179 161 141 124 51 11 356 350 344 341 339 336 334 333 331 330 328 328 328 326 325 324 323 322 321 321 319 319 319 318 319 319 319 319 319 319 318 318 317 316 316 316
156 173 187 180 151 118 140 239 198 113 178 189 196 271 273 247 181 187 204 214 196 195 196 200 206 206 205 206 205 203 202 200 198 195 194 196 197 199 200 201 202 203 203 202 202 202 201 199 199 200 202 202 200 198 193 188 183 181 211 300 327 335 338 337 337 335 333 332 330 329 328 327 326 324 323 322 321 321 320 318 318 318 318 318 319 319 319 319 319 318 318 317 317 316 315 314 314